sat.trackr.live / text

‹ back to catalog

STARLETTE

NORAD 7646 · 1975-010A

PAYLOAD ACTIVE UNKNOWN

§ Identity

Operator
Country
FR
Launch date
1975-02-06
Launch site
FRGUI
Launch vehicle
Mass (kg)
RCS (m²)
0.17

Purposes: science

External: N2YO · Heavens-Above · Gunter

§ Orbital elements

Epoch: 2026-05-25T04:10:50.733984Z

Period
104.17 min
Inclination
49.8225°
Eccentricity
0.0205585
Mean motion
13.82350184 rev/d
Perigee alt
804.8 km
Apogee alt
1,106.3 km
Semi-major
7,333.7 km
B*
5.7925e-6
RAAN
195.4348°
Arg perigee
347.0136°
Mean anomaly
12.5511°
Rev number
59,135

§ Raw data

STARLETTE1 07646U 75010A   26145.17419831 -.00000136  00000+0  57925-5 0  99912 07646  49.8225 195.4348 0205585 347.0136  12.5511 13.82350184591351

JSON: /api/v1/satellites/7646 · /tle

For live sub-satellite position, see the globe view (requires WebGL).

§ Visibility from observer

Set your observer location to see the next 7 days of passes ≥ 10°. The values pass through the URL so the page stays shareable.

No JS? Fill the form by hand. The geolocation button needs JavaScript.